Skip Page Navigation
NASA JPL Caltech
NASA Logo - Jet Propulsion Laboratory + View the NASA Portal
+ Center for Near-Earth Object Studies
JPL Home Earth Solar System Stars & Galaxies Technology
JPL Solar System Dynamics
BODIES ORBITS EPHEMERIDES TOOLS PHYSICAL DATA DISCOVERY FAQ SITE MAP
IMPORTANT: The SSD Announcement email list is now available. Major changes are coming in the near future, including possible hostname and/or URL changes. To be notified of such changes, subscribe to this email list.

Please visit this page for more details.


JPL Small-Body Database Browser
Search: [ help ]  
(2014 WG6)
Classification: Amor [NEO]          SPK-ID: 3696404
Ephemeris | Orbit Diagram | Orbital Elements | Mission Design | Physical Parameters | Close-Approach Data ]

[ hide orbit diagram ]

For accurate long-term ephemerides, please instead use our Horizons system.This orbit viewer was implemented using two-body methods, and hence should not be used for determining accurate long-term trajectories (over several years or decades) or planetary encounter circumstances.


[ revert to old Java-based viewer ]

Orbital Elements at Epoch 2456980.5 (2014-Nov-19.0) TDB
Reference: JPL 7 (heliocentric ecliptic J2000)
 Element Value Uncertainty (1-sigma)   Units 
e .2139436647668484 0.0010807  
a 1.334717882654054 0.0022943 au
q 1.049163447409197 0.0003611 au
i 10.74106386412814 0.049562 deg
node 54.83445238987836 0.0086942 deg
peri 56.02134848094346 0.036607 deg
M 324.8789393810451 0.10591 deg
tp 2457035.447478479637
(2015-Jan-12.94747848)
0.024042 TDB
period 563.2259363486711
1.54
1.4522
0.003976
d
yr
n .6391751103186735 0.0016481 deg/d
Q 1.62027231789891 0.0027852 au
  Orbit Determination Parameters
   # obs. used (total)      21  
   data-arc span      25 days  
   first obs. used      2014-11-17  
   last obs. used      2014-12-12  
   planetary ephem.      DE431  
   SB-pert. ephem.      SB431-N16  
   condition code      8  
   norm. resid. RMS      .46793  
   source      ORB  
   producer      Otto Matic  
   solution date      2017-Apr-06 08:37:27  

Additional Information
 Earth MOID = .120065 au 
 Jupiter MOID = 3.51397 au 
 T_jup = 4.871 
[ show covariance matrix ]

Ephemeris | Orbit Diagram | Orbital Elements | Mission Design | Physical Parameters | Close-Approach Data ]

Physical Parameter Table
Parameter Symbol Value Units Sigma Reference Notes
absolute magnitude H 25.2   n/a MPCxxxxx  

[ show close-approach data ]
Ephemeris | Orbit Diagram | Orbital Elements | Mission Design | Physical Parameters | Close-Approach Data ]
ABOUT SSD CREDITS/AWARDS PRIVACY/COPYRIGHT GLOSSARY LINKS
FirstGov 2020-Feb-18 00:56 UT
(server date/time)  
NASA Home Page
Site Manager:   Ryan S. Park
Webmaster  Alan B. Chamberlin